Regional Weather Roundup
Issued by NWS

Home | Current Version | Previous Version | Graphics & Text | Print | Product List | Glossary On
Versions: 1 2 3 4 5 6 7 8 9 10 11 12 13 14 15 16 17 18 19 20 21 22 23 24 25 26 27 28 29 30 31 32 33 34 35 36 37 38 39 40 41 42 43 44 45 46 47 48 49 50
000
ASUS43 KMKX 250800
RWRWI

WISCONSIN REGIONAL WEATHER ROUNDUP
NATIONAL WEATHER SERVICE MILWAUKEE/SULLIVAN WI
300 AM CDT TUE APR 25 2017

NOTE: "FAIR" INDICATES FEW OR NO CLOUDS BELOW 12,000 FEET WITH NO
SIGNIFICANT WEATHER AND/OR OBSTRUCTIONS TO VISIBILITY.

WIZ001-002-006>008-014>016-023>028-250900-
NORTHWEST WISCONSIN

CITY           SKY/WX    TMP DP  RH WIND       PRES   REMARKS
SUPERIOR ARPT  CLOUDY    38  35  90 NE10G16   29.64F WCI  31
ASHLAND        CLOUDY    39  37  92 NW10      29.60F WCI  32
HAYWARD        CLOUDY    62  32  32 S10G20    29.60R
SIREN          CLOUDY    55  43  62 CALM      29.55F
CUMBERLAND     CLOUDY    59  30  33 E7        29.57F
RICE LAKE      CLOUDY    60  31  33 SE9       29.59F
CHETEK         CLOUDY    60  35  39 E9G17     29.58F
LADYSMITH      CLOUDY    59  34  39 SW6       29.65S
EAU CLAIRE     NOT AVBL
MENOMONIE      CLOUDY    60  33  36 SE13      29.56F
NEW RICHMOND   CLOUDY    60  32  34 SE5       29.54F
OSCEOLA        CLOUDY    55  45  68 E10       29.56S
$$

WIZ003>005-009-010-017-018-250900-
NORTH CENTRAL WISCONSIN

CITY           SKY/WX    TMP DP  RH WIND       PRES   REMARKS
MANITOWISH WTR CLOUDY    51  32  49 SE3       29.67F
ARBOR VITAE    CLOUDY    52  35  52 SE8       29.67F
WOODRUFF       CLOUDY    52  35  52 SE8       29.67F
RHINELANDER    CLOUDY    51  35  54 E9        29.69F
EAGLE RIVER    CLOUDY    47  32  56 SE6       29.69F
LAND O LAKES   CLOUDY    47  33  57 E8        29.72F
PHILLIPS       CLOUDY    52  35  52 E3        29.63F
TOMAHAWK       PTCLDY    51  31  45 E3        29.68F
MEDFORD        CLOUDY    55  34  46 SE9       29.64F
MERRILL        CLOUDY    55  33  43 SE9       29.68F
$$

WIZ029-030-035-036-043>047-250900-
CENTRAL WISCONSIN

CITY           SKY/WX    TMP DP  RH WIND       PRES   REMARKS
WAUSAU         CLOUDY    58  32  37 SE8       29.66F
MOSINEE        CLOUDY    59  30  33 SE12G21   29.69F
MARSHFIELD     CLOUDY    58  31  35 SE12      29.64F
STEVENS POINT  CLOUDY    58  29  33 SE8G21    29.69F
WAUPACA        CLOUDY    57  32  38 E6        29.71F
WAUTOMA        CLOUDY    59  34  39 E6        29.69F
WISC RAPIDS    CLOUDY    60  32  34 SE8       29.67
CAMP DOUGLAS   NOT AVBL
$$

WIZ011>013-019>022-031-037>040-048>050-250900-
NORTHEAST WISCONSIN

CITY           SKY/WX    TMP DP  RH WIND       PRES   REMARKS
ANTIGO         CLOUDY    46  35  65 SE12      29.71F
SHAWANO        CLOUDY    50  40  68 N3        29.74S
OCONTO         CLOUDY    49  34  56 S6        29.73F
STURGEON BAY   CLOUDY    51  39  63 SE9       29.76F
GREEN BAY      CLOUDY    47  38  71 E6        29.75S
MANITOWOC      NOT AVBL
APPLETON       CLEAR     54  30  40 E5        29.72F
CLINTONVILLE   CLOUDY    55  32  41 SE10      29.72F
OSHKOSH        CLOUDY    54  34  46 SE3       29.72S
$$

WIZ032>034-041-042-053>061-250900-
SOUTHWEST WISCONSIN

CITY           SKY/WX    TMP DP  RH WIND       PRES   REMARKS
LA CROSSE      CLEAR     63  30  28 S9        29.58F
SPARTA         CLEAR     60  32  35 SE10      29.63F
VIROQUA        CLEAR     56  31  39 SE12      29.63F
BOSCOBEL       CLEAR     60  32  34 VRB5      29.63F
PRAIRIE DU CHI CLEAR     57  30  35 SE3       29.61F
PLATTEVILLE    CLOUDY    55  35  46 SE14      29.65F
$$

WIZ056-057-062-063-064-067-068-250900-
SOUTH CENTRAL WISCONSIN

CITY           SKY/WX    TMP DP  RH WIND       PRES   REMARKS
REEDSBURG      PTCLDY    55  33  42 CALM      29.67F
BARABOO/DELLS  PTCLDY    55  32  41 SE9       29.67F
LONE ROCK      NOT AVBL
MINERAL POINT  CLEAR     54  34  47 E6        29.67F
MADISON        CLOUDY    58  35  42 SE12      29.68F
MIDDLETON      CLOUDY    59  35  39 SE8       29.69F
WATERTOWN      CLOUDY    57  36  45 SE8       29.71F
MONROE         CLEAR     54  36  50 SE12      29.68F
JANESVILLE     PTCLDY    55  36  47 SE8       29.70F
$$

WIZ051-052-058>065-066-070>072-250900-
SOUTHEAST WISCONSIN

CITY           SKY/WX    TMP DP  RH WIND       PRES   REMARKS
MILWAUKEE      MOCLDY    53  38  56 SE10      29.73F
WAUKESHA       PTCLDY    54  32  43 SE8       29.75F
MILWAUKEE/TIMM MOCLDY    54  32  43 SE7       29.76F
RACINE         PTCLDY    53  36  52 SE12G20   29.75F
KENOSHA        PTCLDY    54  37  52 SE9       29.73F
FOND DU LAC    CLOUDY    56  33  42 SE14      29.72F
SHEBOYGAN      CLOUDY    50  37  61 S6        29.75F
WEST BEND      CLOUDY    54  34  47 SW3       29.75S
JUNEAU         CLOUDY    55  36  48 SE10      29.73F
$$

LSZ147-162-250900-
LAKE SUPERIOR

STATION/POSITION TIME  TEMP    WIND        PRES    WAVE
                       AIR SEA DIR/SP/G            HT/PER
                 (UTC) (F)     (DEG/KT/KT) (MB)    (FT/S)
DEVILS ISLAND    0700   38      60/ 19/ 21 1003.5F
PORT WING        0720   38      20/  9/ 19 1004.1R
SAXON HARBOR     0740   40     300/  7/  9 1002.0F
$$

LMZ867-665-643>646-250900-
LAKE MICHIGAN

STATION/POSITION TIME  TEMP    WIND        PRES    WAVE
                       AIR SEA DIR/SP/G            HT/PER
                 (UTC) (F)     (DEG/KT/KT) (MB)    (FT/S)
CHAMBERS ISLAND  0740   50     130/  8/ 15 1008.1F
N MID LAKE BUOY  0650   43 37  130/ 16/ 17 1010.0F   2/ 5
NORTHPORT PIER   0740   50     150/  6/  8 1009.5S
KEWAUNEE LAKESHO 0730   51      60/  3/  4 1007.5F
SHEBOYGAN LAKESH 0700   49     170/  5/  5 1008.1F
PORT WASHINGTON  0730   51     140/  4/  6 1008.8S
MILWAUKEE LAKESH 0740   48      80/  2/  2   N/A
S MID LAKE BUOY  0650   47 41  100/  8/ 10 1008.7F   1
KENOSHA   LAKESH 0700   50     160/  7/ 10 1007.8
$$

TC  - TEMPERATURE IN CELSIUS
VSB - VISIBILITY IN STATUTE MILES
WCI - WIND CHILL INDEX
HX  - HEAT INDEX





USA.gov is the U.S. government's official web portal to all federal, state and local government web resources and services.